Weather History for Fountain Dale, PA

Change the Weather History Date:

Monday, March 11, 2013

  Actual Average (KHGR) Record (KHGR)
Temperature  
Mean Temperature 50 °F -  
Max Temperature 57 °F 45 °F 75 °F (2009)
Min Temperature 42 °F 28 °F 19 °F (1998)
Degree Days  
Heating Degree Days 16    
Moisture  
Dew Point 38 °F    
Average Humidity 65    
Maximum Humidity 80    
Minimum Humidity 42    
Precipitation  
Precipitation 0.00 in - - ()
Sea Level Pressure  
Sea Level Pressure 30.07 in    
Wind  
Wind Speed 1 mph (SW)    
Max Wind Speed 8 mph    
Max Gust Speed -    
Visibility 10 miles    
Events Rain    
Averages and records for this station are not official NWS values.
T = Trace of Precipitation, MM = Missing Value Source: NWS Daily Summary

Daily Weather History Graph

Daily Weather History Graph

Search for Another Location

Airport:

Trip Planner

Search our weather history database for the weather conditions in past years. The results will help you decide how hot, cold, wet, or windy it might be!

Date:

Astronomy

Mar. 11, 2013 Rise Set
Actual Time 7:27 AM EDT 7:12 PM EDT
Civil Twilight 7:00 AM EDT 7:39 PM EDT
Nautical Twilight 6:29 AM EDT 8:10 PM EDT
Astronomical Twilight 5:57 AM EDT 8:42 PM EDT
Moon 6:59 AM EDT (3/11) 7:22 PM EDT (3/11)
Length of Visible Light 12h 39m
Length of Day
11h 45m
Waning Crescent, 0% of the Moon is Illuminated
Mar 11
Waning Crescent
Mar 11
New
Mar 19
First Quarter
Mar 27
Full
Apr 3
Last Quarter

Hourly Weather History & Observations

Time (EDT) Temp. Windchill Dew Point Humidity Pressure Visibility Wind Dir Wind Speed Gust Speed Precip Events Conditions
12:53 AM 44.1 °F - 21.9 °F 42% 30.19 in 10.0 mi Calm Calm - N/A   Clear
3:53 AM 43.0 °F - 26.1 °F 51% 30.15 in 10.0 mi Calm Calm - N/A   Clear
4:53 AM 43.0 °F - 30.0 °F 60% 30.14 in 10.0 mi Calm Calm - N/A   Clear
5:53 AM 42.1 °F - 34.0 °F 73% 30.13 in 10.0 mi Calm Calm - N/A   Partly Cloudy
6:06 AM 42.8 °F - 35.6 °F 76% 30.12 in 10.0 mi Calm Calm - N/A   Mostly Cloudy
6:53 AM 43.0 °F - 36.0 °F 76% 30.14 in 10.0 mi Calm Calm - N/A   Overcast
7:53 AM 43.0 °F - 37.0 °F 80% 30.14 in 8.0 mi Calm Calm - N/A   Overcast
8:53 AM 45.0 °F 42.6 °F 37.9 °F 76% 30.14 in 9.0 mi Variable 4.6 mph - N/A   Overcast
9:23 AM 44.6 °F - 37.4 °F 76% 30.13 in 9.0 mi Calm Calm - N/A   Mostly Cloudy
9:53 AM 46.0 °F 43.9 °F 37.9 °F 73% 30.14 in 10.0 mi Variable 4.6 mph - N/A   Partly Cloudy
10:53 AM 46.9 °F - 37.9 °F 71% 30.12 in 10.0 mi Calm Calm - N/A   Clear
11:53 AM 50.0 °F - 37.9 °F 63% 30.12 in 10.0 mi Variable 3.5 mph - N/A   Clear
12:53 PM 54.0 °F - 36.0 °F 51% 30.09 in 10.0 mi Calm Calm - N/A   Clear
1:53 PM 55.0 °F - 34.0 °F 45% 30.06 in 10.0 mi Variable 3.5 mph - N/A   Clear
2:53 PM 55.9 °F - 36.0 °F 47% 30.03 in 10.0 mi Variable 4.6 mph - N/A   Clear
3:53 PM 57.9 °F - 39.0 °F 49% 30.00 in 10.0 mi SW 8.1 mph - N/A   Clear
4:53 PM 57.0 °F - 45.0 °F 64% 29.99 in 10.0 mi SW 8.1 mph - N/A   Mostly Cloudy
5:53 PM 57.0 °F - 45.0 °F 64% 29.99 in 10.0 mi Variable 3.5 mph - N/A   Overcast
6:53 PM 55.0 °F - 44.1 °F 67% 29.99 in 10.0 mi Variable 3.5 mph - N/A   Overcast
8:23 PM 53.6 °F - 44.6 °F 72% 29.97 in 10.0 mi Calm Calm - N/A   Overcast
8:53 PM 54.0 °F - 45.0 °F 72% 29.97 in 10.0 mi Calm Calm - N/A   Overcast
10:53 PM 54.0 °F - 46.0 °F 75% 29.94 in 9.0 mi Calm Calm - 0.00 in Rain Light Rain
11:53 PM 54.0 °F - 46.0 °F 75% 29.89 in 9.0 mi Variable 3.5 mph - 0.00 in   Overcast